Regional Weather Roundup
Issued by NWS Boston, MA

Current Version | Previous Version | Text Only | Print | Product List | Glossary Off
Versions: 1 2 3 4 5 6 7 8 9 10 11 12 13 14 15 16 17 18 19 20 21 22 23 24 25 26 27 28 29 30 31 32 33 34 35 36 37 38 39 40 41 42 43 44 45 46 47 48 49 50
000 ASUS41 KBOX 212000 RWRBOX REGIONAL WEATHER ROUNDUP NATIONAL WEATHER SERVICE BOSTON/NORTON MA 300 PM EST THU FEB 21 2019 NOTE: "FAIR" INDICATES FEW OR NO CLOUDS BELOW 12,000 FEET WITH NO SIGNIFICANT WEATHER AND/OR OBSTRUCTIONS TO VISIBILITY. MAZALL-212100- EASTERN MASSACHUSETTS CITY SKY/WX TMP DP RH WIND PRES REMARKS BOSTON PTSUNNY 47 30 51 W20 29.83S BEVERLY CLOUDY 44 31 60 W8 29.82S LAWRENCE CLOUDY 42 33 70 W8 29.83S BEDFORD NOT AVBL BLUE HILL N/A 41 30 65 W15G30 29.81R NORWOOD PTSUNNY 47 29 49 W10G22 29.84S MARSHFIELD NOT AVBL PLYMOUTH FAIR 44 30 57 W10 29.85R TAUNTON FAIR 47 29 49 NW12G18 29.86R NEW BEDFORD FAIR 46 36 68 VRB6 29.86R $$ MAZALL-212100- CAPE COD AND THE ISLANDS CITY SKY/WX TMP DP RH WIND PRES REMARKS FALMOUTH FAIR 46 32 57 NW13G21 29.85R HYANNIS NOT AVBL CHATHAM FAIR 45 33 63 W13G23 29.85R PROVINCETOWN FAIR 42 34 73 W14 29.85R NANTUCKET FAIR 42 36 79 W16 29.87R MARTHAS VNYRD FAIR 46 37 71 NW10 29.87R $$ MAZALL-212100- CENTRAL AND WESTERN MASSACHUSETTS CITY SKY/WX TMP DP RH WIND PRES REMARKS WORCESTER FAIR 42 27 55 NW23G37 29.81S FITCHBURG PTSUNNY 43 29 57 W18G26 29.84R ORANGE FAIR 45 27 49 NW13G25 29.86R SPRINGFIELD NOT AVBL WESTFIELD FAIR 46 26 45 NW15G29 29.88R NORTH ADAMS CLOUDY 40 27 59 W16G26 29.91R WCI 31 PITTSFIELD FAIR 40 25 55 NW20G31 29.87R WCI 30 $$ RIZALL-212100- RHODE ISLAND CITY SKY/WX TMP DP RH WIND PRES REMARKS PROVIDENCE PTSUNNY 48 30 49 W16G22 29.87R NEWPORT FAIR 47 33 58 W12G18 29.86R BLOCK ISLAND FAIR 42 36 79 W13 29.90R SMITHFIELD FAIR 45 28 51 NW16G24 29.86R WESTERLY FAIR 45 37 73 SW12 29.90R $$ CTZALL-212100- CONNECTICUT CITY SKY/WX TMP DP RH WIND PRES REMARKS BRADLEY INTL FAIR 47 27 45 W20 29.89R HARTFORD FAIR 50 28 42 NW10 29.89R BRIDGEPORT CLOUDY 53 34 48 W9G18 29.90S DANBURY PTSUNNY 49 28 44 W13G22 29.91R GROTON NOT AVBL NEW HAVEN FAIR 51 36 56 NW9 29.90S CHESTER FAIR 48 34 57 W9G15 29.88S MERIDEN FAIR 48 34 58 W10G17 29.90R WILLIMANTIC FAIR 45 31 58 W8 29.88R OXFORD PTSUNNY 45 34 65 NW12 29.89S $$ MEZ002-015-021-024-NHZ003-005-008-011-012-014-VTZ005-008-212100- NORTHERN NEW ENGLAND CITY SKY/WX TMP DP RH WIND PRES REMARKS PORTLAND ME FAIR 43 32 65 CALM 29.76S BANGOR ME PTSUNNY 36 32 85 SW6 29.71F WCI 31 CONCORD NH CLOUDY 42 29 59 NW15G24 29.81R MANCHESTER NH PTSUNNY 42 32 67 NW6 29.81R NASHUA NH CLOUDY 45 31 58 NW10G17 29.82R PORTSMOUTH NH NOT AVBL JAFFREY NH FAIR 42 29 59 W12G20 29.82R KEENE NH CLOUDY 43 29 57 VRB6 29.86R BURLINGTON VT CLOUDY 40 27 59 W15G24 29.85R WCI 32 MT. WASHINGTON SNOWSHWR 14 14 100 W58G78 N/A VSB 0 WCI -12 $$ NYZ052-076-212100- EASTERN NEW YORK CITY SKY/WX TMP DP RH WIND PRES REMARKS ALBANY PTSUNNY 42 26 53 NW17G23 29.96R NEW YORK CITY FAIR 50 34 54 W8 29.94S $$ ANZALL-212100- MARINE OBSERVATIONS STATION/POSITION TIME TEMP WIND PRES VSBY WAVE AIR SEA DIR/SP/G HT/PER (UTC) (F) (DEG/KT/KT) (MB) (MI) (FT/S) BOSTON BUOY 1850 39 39 240/ 14/ 16 1009.4 3/ 8 BUZZARDS BAY 1900 38 250/ 14/ 16 1011.7S NANTUCKET SOUND 1940 37 35 270/ 12/ 14 1011.0R MASS BAY-STELLWA 1904 38 38 260/ 12/ 16 1008.4R 1 7/8 5/ 8 ISLE OF SHOALS 1900 36 240/ 10/ 11 1008.9F S OF BLOCK IS 1930 42 N/A 6/ 8 $$ ......................KEY......................... SKY/WX - SKY CONDITION/PRESENT WEATHER TMP - TEMPERATURE IN FAHRENHEIT DWPT - DEWPOINT IN FAHRENHEIT RH - RELATIVE HUMIDITY IN PERCENT WIND - DIRECTION AND SPEED IN MPH PRES - MEAN SEA LEVEL PRESSURE IN INCHES OF HG WCI - WIND CHILL INDEX VSB - VISIBILITY IN MILES HX - HEAT INDEX TC - TEMPERATURE IN CELSIUS VRB - VARIABLE WIND DIRECTION N/A - NOT AVAILABLE

USA.gov is the U.S. government's official web portal to all federal, state and local government web resources and services.